Flag for China Weather past 2 weeks in Suzhou, Jiangsu, China

Now
37 °F

Passing clouds.


Feels Like: 29 °F
Forecast: 37 / 52 °F
Wind: 13 mph from Northwest

Location: Shanghai Hongqiao Airport

Current Time: Mar 1, 2015 at 3:25:45 AM

Latest Report: Mar 1, 2015 at 3:00 AM


Visibility: N/A

Pressure: 30.27 "Hg

Humidity: 87%

Dew point: 34 °F

Location of SuzhouLocation

Historic Weather in Suzhou — Graph

°F

Suzhou temperature yesterday

Maximum temperature yesterday: 43 °F (at 11:00 AM)
Minimum temperature yesterday: 39 °F (at 5:00 PM)
Average temperature yesterday: 41 °F

Past Weeks' High & Low Weather Summary

 TemperatureHumidityPressure
High66 °F (Feb 15, 4:00 PM)100% (Feb 15, 8:30 AM)30.42 "Hg (Feb 15, 8:30 AM)
Low34 °F (Feb 19, 4:00 AM)29% (Feb 17, 3:00 PM)29.89 "Hg (Feb 15, 3:30 PM)
Average48 °F77%30.15 "Hg
* Reported Feb 14 2:00 AM — Mar 1 2:00 AM, Suzhou, Weather by CustomWeather, © 2015

Note: Actual official high and low records may vary slightly from our data, if they occured in-between our weather recording intervals... More about our weather records

Advertising

Suzhou weather history for previous 24 hours

 ConditionsComfort  
Time TempWeatherWind HumidityBarometerVisibility
2:00 AM
Sun, Mar 1
39 °FMostly cloudy.13 mph87%30.30 "HgN/A
1:30 AM39 °FMostly cloudy.13 mph87%30.30 "HgN/A
1:00 AM39 °FMostly cloudy.15 mph81%30.30 "HgN/A
12:30 AM39 °FMostly cloudy.15 mph87%30.30 "HgN/A
12:00 AM39 °FMostly cloudy.13 mph87%30.30 "HgN/A
11:30 PM
Sat, Feb 28
39 °FMostly cloudy.13 mph93%30.30 "HgN/A
11:00 PM39 °FMostly cloudy.15 mph87%30.30 "HgN/A
10:30 PM39 °FMostly cloudy.13 mph93%30.27 "HgN/A
10:00 PM39 °FMostly cloudy.13 mph93%30.27 "HgN/A
9:30 PM39 °FMostly cloudy.15 mph93%30.27 "HgN/A
9:00 PM39 °FMostly cloudy.15 mph93%30.24 "HgN/A
8:30 PM39 °FMostly cloudy.13 mph93%30.24 "HgN/A
8:00 PM39 °FMostly cloudy.10 mph93%30.24 "HgN/A
7:30 PM39 °FMostly cloudy.13 mph93%30.24 "HgN/A
7:00 PM39 °FMostly cloudy.10 mph93%30.21 "HgN/A
6:30 PM39 °FMostly cloudy.13 mph93%30.21 "HgN/A
6:00 PM39 °FMostly cloudy.10 mph93%30.21 "Hg4 mi
5:30 PM39 °FLight rain. Mostly cloudy.10 mph93%30.18 "Hg4 mi
5:00 PM39 °FLight rain. Mostly cloudy.13 mph93%30.18 "Hg4 mi
4:30 PM41 °FLight rain. Mostly cloudy.13 mph93%30.18 "Hg4 mi
4:00 PM41 °FLight rain. Mostly cloudy.13 mph93%30.18 "Hg4 mi
3:30 PM41 °FLight rain. Mostly cloudy.13 mph93%30.15 "HgN/A
3:00 PM41 °FLight rain. Mostly cloudy.10 mph100%30.15 "HgN/A
2:30 PM41 °FLight rain. Mostly cloudy.10 mph93%30.15 "Hg4 mi
2:00 PM41 °FLight rain. Mostly cloudy.8 mph100%30.15 "Hg4 mi
1:30 PM41 °FLight rain. Mostly cloudy.8 mph100%30.15 "Hg4 mi
1:00 PM41 °FLight rain. Mostly cloudy.8 mph93%30.15 "Hg4 mi
12:30 PM43 °FLight rain. Mostly cloudy.6 mph93%30.21 "Hg4 mi
11:30 AM41 °FLight rain. Mostly cloudy.10 mph93%30.21 "HgN/A
11:00 AM43 °FLight rain. Mostly cloudy.8 mph87%30.21 "HgN/A
10:30 AM41 °FLight rain. Mostly cloudy.8 mph93%30.21 "HgN/A
10:00 AM41 °FLight rain. Mostly cloudy.8 mph93%30.24 "HgN/A
9:30 AM41 °FLight rain. Mostly cloudy.8 mph93%30.21 "HgN/A
9:00 AM41 °FMostly cloudy.10 mph87%30.21 "HgN/A
8:30 AM41 °FLight rain. Mostly cloudy.8 mph87%30.24 "HgN/A
8:00 AM41 °FLight rain. Mostly cloudy.10 mph87%30.24 "Hg5 mi
7:30 AM41 °FLight rain. Mostly cloudy.8 mph87%30.24 "HgN/A
7:00 AM41 °FLight rain. Mostly cloudy.8 mph93%30.24 "HgN/A
6:30 AM41 °FLight rain. Mostly cloudy.10 mph87%30.24 "HgN/A
6:00 AM41 °FLight rain. Mostly cloudy.10 mph87%30.24 "HgN/A
5:30 AM41 °FLight rain. Mostly cloudy.10 mph93%30.24 "HgN/A
5:00 AM41 °FLight rain. Mostly cloudy.6 mph93%30.24 "HgN/A
4:30 AM41 °FLight rain. Passing clouds.8 mph87%30.24 "HgN/A
4:00 AM41 °FLight rain. Passing clouds.8 mph93%30.24 "HgN/A
3:30 AM41 °FLight rain. Passing clouds.6 mph93%30.24 "HgN/A
3:00 AM41 °FLight rain. Passing clouds.6 mph93%30.27 "HgN/A
Weather by CustomWeather, © 2015

See weather overviewHow to use our weather pages